Retour au catalogue

ELECTRON KICK STAGE R/B

ActifVLEO
NORAD 53104·ROCKET BODY·🇺🇸 United States

Lancé Jul 13, 2022 depuis Rocket Lab Launch Complex 1

Loading…

Prochains Passages (prochaines 24 heures)

TLE

FraisSource: Space-Track

Époque: Sep 14, 2026, 20:31 UTC

1 53104U 22079C   26257.85535761  .00004362  00000-0  34150-3 0  9996
2 53104  40.0129  73.2275 0004997 216.8727 143.1723 15.01603776128850

Suivez ELECTRON KICK STAGE R/B en temps réel avec AllMySat

Download on the App Store